This is the latest recevied weather packets stored in our database for station/object DH1FR-13. If no packets are shown the sender has not sent any weather packets the latest 10 day(s).
| Time | Temp. | Humidity | Pressure | Rain* | Wind** | Luminosity | Snow |
|---|---|---|---|---|---|---|---|
| 1777415401 | 7.22° C | 57% | 1026.9 hPa | 0 mm | 0 m/s | - | - |
| 1777414801 | 7.22° C | 56% | 1026.7 hPa | 0 mm | 0 m/s | - | - |
| 1777413601 | 7.78° C | 55% | 1026.5 hPa | 0 mm | 0 m/s | - | - |
| 1777413001 | 8.33° C | 54% | 1026.4 hPa | 0 mm | 0 m/s | - | - |
| 1777412401 | 8.33° C | 53% | 1026.3 hPa | 0 mm | 0 m/s | - | - |
| 1777411801 | 8.89° C | 51% | 1026.3 hPa | 0 mm | 0 m/s | - | - |
| 1777411201 | 8.89° C | 53% | 1026.4 hPa | 0 mm | 0 m/s | - | - |
| 1777410601 | 10° C | 50% | 1026.3 hPa | 0 mm | 0 m/s | - | - |
| 1777410001 | 10° C | 49% | 1026.1 hPa | 0 mm | 0 m/s | - | - |
| 1777409401 | 10° C | 49% | 1026.1 hPa | 0 mm | 0 m/s | - | - |
| 1777408801 | 10.56° C | 49% | 1026.1 hPa | 0 mm | 0 m/s | - | - |
| 1777408201 | 10.56° C | 49% | 1026.1 hPa | 0 mm | 0 m/s | - | - |
| 1777407601 | 10.56° C | 48% | 1026.3 hPa | 0 mm | 0 m/s | - | - |
| 1777407001 | 10.56° C | 50% | 1026.1 hPa | 0 mm | 0 m/s | - | - |
| 1777406401 | 10.56° C | 50% | 1026 hPa | 0 mm | 0 m/s | - | - |
| 1777405801 | 11.11° C | 48% | 1025.8 hPa | 0 mm | 0 m/s | - | - |
| 1777405201 | 11.67° C | 47% | 1025.7 hPa | 0 mm | 0 m/s | - | - |
| 1777404601 | 11.67° C | 47% | 1025.7 hPa | 0 mm | 0 m/s | - | - |
| 1777404001 | 11.67° C | 47% | 1025.5 hPa | 0 mm | 0 m/s | - | - |
| 1777402801 | 12.22° C | 49% | 1025.3 hPa | 0 mm | 0 m/s | - | - |
| 1777402201 | 12.78° C | 48% | 1025.3 hPa | 0 mm | 0 m/s | - | - |
| 1777401601 | 12.78° C | 48% | 1025.2 hPa | 0 mm | 0 m/s | - | - |
| 1777401001 | 12.78° C | 47% | 1024.8 hPa | 0 mm | 0 m/s | - | - |
| 1777400401 | 13.33° C | 47% | 1024.8 hPa | 0 mm | 0 m/s | - | - |
| 1777399801 | 13.89° C | 46% | 1024.8 hPa | 0 mm | 0 m/s | - | - |
* Rain latest hour (hover to see other rain measurements)
** Current wind speed in m/s (hover to see current wind gust speed)